QPF
0.00 0.00 0.00 0.00 0.00 0.00 0.00 0.00 0.00 0.00 0.00 0.00 0.00 0.00 0.00 0.00 0.00 0.00 0.00 0.00 0.00 0.00
0.00 0.00 0.00 0.00 0.00 0.00 0.00 0.00 0.00 0.00 0.00 0.00 0.00 0.00 0.00 0.00 0.00 0.00 0.00 0.00 0.00 0.00
0.00 0.00 0.00 0.00 0.00 0.00 0.00 0.00 0.00 0.00 0.00 0.00 0.00 0.00 0.00 0.00 0.00 0.00 0.00 0.00 0.00 0.00
0.00 0.00 0.00 0.00 0.00 0.00 0.00 0.00 0.00 0.00 0.00 0.00 0.00 0.00 0.00 0.00 0.00 0.00 0.00 0.00 0.00 0.00
0.00 0.00 0.00 0.00 0.00 0.00 0.00 0.00 0.00 0.00 0.00 0.00 0.00 0.00 0.00 0.00 0.00 0.00 0.00 0.00 0.00 0.00
0.00 0.00 0.00 0.00 0.00 0.00 0.00 0.00 0.00 0.00 0.00 0.00 0.00 0.00 0.00 0.00 0.00 0.00 0.00 0.00 0.00 0.00
0.00 0.00 0.00 0.00 0.00 0.00 0.00 0.00 0.00 0.00 0.00 0.00 0.00 0.00 0.00 0.00 0.00 0.00 0.00 0.00 0.00 0.00
0.00 0.00 0.00 0.00 0.00 0.00 0.00 0.00 0.00 0.00 0.00 0.00 0.00 0.00 0.00 0.00 0.00 0.00 0.00 0.00 0.00 0.00
0.00 0.00 0.00 0.00 0.00 0.00 0.00 0.00 0.00 0.00 0.00 0.00 0.00 0.00 0.00 0.00 0.00 0.00 0.00 0.00 0.00 0.00
0.00 0.00 0.00 0.00 0.00 0.00 0.00 0.00 0.00 0.00 0.00 0.00 0.00 0.00 0.00 0.00 0.00 0.00 0.00 0.00 0.00 0.00
0.00 0.00 0.00 0.00 0.00 0.00 0.00 0.00 0.00 0.00 0.00 0.00 0.00 0.00 0.00 0.00 0.00 0.00 0.00 0.00 0.00 0.00
0.00 0.00 0.00 0.00 0.00 0.00 0.00 0.00 0.00 0.00 0.00 0.00 0.00 0.00 0.00 0.00 0.00 0.00 0.00 0.00 0.00 0.00
0.00 0.00 0.00 0.00 0.00 0.00 0.00 0.00 0.00 0.00 0.00 0.00 0.00 0.00 0.00 0.00 0.00 0.00 0.00 0.00 0.00 0.00
0.00 0.00 0.00 0.00 0.00 0.00 0.00 0.00 0.00 0.00 0.00 0.00 0.00 0.00 0.00 0.00 0.00 0.00 0.00 0.00 0.00 0.00
MSLP
1016.94 1017.54 1017.49 1018.03 1018.14 1019.36 1018.87 1019.89 1020.14 1020.50 1020.81 1021.26 1021.60 1021.96 1022.25 1022.51 1022.67 1022.86 1022.95 1023.04 1023.22 1023.42
1016.27 1017.54 1017.90 1018.12 1018.39 1018.94 1019.22 1020.07 1020.42 1020.65 1020.98 1021.45 1021.80 1022.11 1022.39 1022.63 1022.74 1022.88 1022.99 1023.10 1023.22 1023.35
1017.05 1017.48 1017.52 1018.49 1018.77 1019.26 1019.56 1020.32 1020.68 1020.84 1021.11 1021.67 1021.96 1022.23 1022.50 1022.72 1022.78 1022.89 1023.03 1023.10 1023.14 1023.22
1017.13 1017.12 1018.30 1018.96 1019.18 1019.54 1019.93 1020.58 1020.97 1020.92 1021.37 1021.82 1022.11 1022.34 1022.65 1022.78 1022.86 1022.96 1023.05 1023.11 1023.11 1023.11
1017.63 1018.19 1018.88 1019.30 1019.41 1019.83 1020.50 1020.76 1020.72 1021.24 1021.54 1021.96 1022.26 1022.50 1022.67 1022.76 1022.89 1022.99 1023.17 1023.23 1023.24 1023.14
1018.56 1018.79 1019.19 1019.51 1019.86 1020.35 1020.70 1020.71 1021.12 1021.52 1021.83 1022.15 1022.39 1022.51 1022.63 1022.86 1023.03 1023.30 1023.40 1023.36 1023.27 1022.97
1018.84 1019.00 1019.32 1019.86 1020.17 1020.71 1020.81 1021.03 1021.59 1021.89 1022.04 1022.20 1022.37 1022.51 1022.77 1023.06 1023.35 1023.51 1023.50 1023.38 1023.22 1022.85
1018.86 1019.26 1019.75 1020.18 1020.79 1021.00 1021.13 1021.57 1021.98 1022.05 1022.14 1022.36 1022.48 1022.75 1022.99 1023.24 1023.53 1023.65 1023.56 1023.31 1022.99 1022.67
1019.21 1019.63 1020.29 1020.86 1021.17 1021.29 1021.63 1021.99 1022.14 1022.27 1022.54 1022.81 1022.84 1022.88 1022.97 1023.23 1023.66 1023.70 1023.53 1023.34 1022.95 1022.56
1019.68 1020.29 1020.85 1021.14 1021.41 1021.76 1022.13 1022.27 1022.59 1022.83 1023.02 1023.14 1023.02 1022.92 1023.03 1023.21 1023.57 1023.57 1023.49 1023.28 1022.99 1022.74
1020.21 1020.79 1021.13 1021.48 1021.92 1022.18 1022.43 1022.76 1023.03 1023.33 1023.35 1023.33 1023.23 1023.00 1022.89 1023.07 1023.47 1023.53 1023.49 1023.36 1023.02 1022.57
1020.59 1021.12 1021.58 1022.04 1022.32 1022.55 1022.88 1023.15 1023.40 1023.46 1023.48 1023.48 1023.17 1022.82 1022.75 1022.98 1023.23 1023.42 1023.37 1023.01 1022.80 1022.38
1020.99 1021.47 1022.01 1022.30 1022.61 1022.94 1023.20 1023.43 1023.55 1023.65 1023.58 1023.27 1023.22 1022.88 1022.72 1022.88 1023.14 1023.24 1023.06 1022.75 1022.37 1022.11
1021.47 1021.87 1022.20 1022.57 1022.96 1023.29 1023.49 1023.73 1023.83 1023.67 1023.61 1023.54 1023.53 1023.44 1023.06 1022.86 1022.81 1022.90 1022.68 1022.51 1022.31 1021.98
Thickness
5603 5601 5605 5602 5604 5590 5597 5587 5584 5580 5577 5571 5566 5560 5554 5548 5543 5537 5532 5526 5518 5510
5597 5588 5586 5588 5589 5585 5586 5577 5574 5572 5568 5561 5554 5548 5543 5536 5531 5526 5519 5512 5504 5496
5587 5584 5586 5578 5580 5578 5576 5567 5564 5562 5558 5549 5543 5537 5531 5525 5519 5513 5505 5498 5490 5482
5576 5581 5572 5568 5570 5568 5564 5558 5554 5554 5547 5539 5532 5526 5519 5513 5507 5499 5491 5483 5477 5467
5566 5566 5562 5561 5563 5559 5552 5549 5549 5541 5535 5527 5521 5514 5507 5501 5493 5485 5476 5468 5460 5452
5553 5555 5555 5555 5553 5548 5544 5543 5535 5528 5522 5515 5509 5502 5495 5486 5478 5468 5460 5452 5445 5438
5548 5550 5549 5545 5543 5537 5535 5530 5522 5516 5511 5504 5497 5489 5480 5472 5462 5452 5444 5436 5428 5422
5543 5542 5538 5535 5529 5526 5523 5516 5509 5504 5499 5491 5484 5474 5464 5455 5446 5437 5428 5421 5413 5406
5534 5532 5526 5520 5517 5515 5509 5502 5497 5492 5484 5474 5469 5460 5452 5442 5430 5422 5414 5407 5397 5388
5524 5519 5514 5510 5507 5501 5495 5490 5483 5476 5467 5460 5453 5447 5437 5427 5418 5408 5399 5390 5380 5369
5512 5508 5504 5499 5493 5489 5483 5476 5469 5460 5454 5446 5438 5432 5425 5415 5404 5393 5383 5372 5360 5349
5502 5498 5492 5487 5481 5476 5469 5462 5454 5448 5440 5432 5426 5420 5412 5401 5390 5377 5366 5355 5339 5327
5491 5486 5480 5474 5469 5462 5455 5447 5440 5433 5427 5423 5413 5406 5398 5388 5375 5365 5353 5336 5323 5308
5479 5473 5468 5462 5454 5447 5440 5433 5426 5421 5414 5407 5398 5389 5381 5371 5358 5344 5333 5318 5306 5295